Regional Weather Roundup
Issued by NWS Boston, MA

Home | Current Version | Previous Version | Text Only | Print | Product List | Glossary On
Versions: 1 2 3 4 5 6 7 8 9 10 11 12 13 14 15 16 17 18 19 20 21 22 23 24 25 26 27 28 29 30 31 32 33 34 35 36 37 38 39 40 41 42 43 44 45 46 47 48 49 50
000
ASUS41 KBOX 071910
RWRBOX

REGIONAL WEATHER ROUNDUP
NATIONAL WEATHER SERVICE TAUNTON MA
300 PM EDT TUE JUL 07 2015

NOTE:  "FAIR" INDICATES FEW OR NO CLOUDS BELOW 12,000 FEET WITH NO
SIGNIFICANT WEATHER AND/OR OBSTRUCTIONS TO VISIBILITY.  THE FOLLOWING
OBSERVATION LOCATIONS DO NOT REPORT PRESENT WEATHER...PROVINCETOWN...
SMITHFIELD...BLOCK ISLAND...KEENE...AND OXFORD.

MAZALL-072000-
EASTERN MASSACHUSETTS

CITY           SKY/WX    TMP DP  RH WIND       PRES   REMARKS
BOSTON         PTSUNNY   84  69  60 S17G25    30.00F
BEVERLY        SUNNY     83  72  69 SE12G20   29.99F
LAWRENCE       MOSUNNY   86  70  58 S12G18    30.00F HX  90
BEDFORD        PTSUNNY   83  69  62 S15G22    29.98F
BLUE HILL        N/A     82  69  64 S15G30    30.02F
NORWOOD        PTSUNNY   84  71  65 S14G22    30.00F
MARSHFIELD     MOSUNNY   84  72  65 S15G24    30.03F
PLYMOUTH       PTSUNNY   82  72  71 S14G21    30.04F
TAUNTON        CLOUDY    83  70  64 S9G20     30.03F
NEW BEDFORD    PTSUNNY   80  72  76 S18       30.04F
$$

MAZALL-072000-
CAPE COD AND THE ISLANDS

CITY           SKY/WX    TMP DP  RH WIND       PRES   REMARKS
FALMOUTH       PTSUNNY   82  73  74 S15       30.05F
HYANNIS        CLOUDY    74  71  91 S12G18    30.05F FOG
CHATHAM        CLOUDY    71  66  84 S8        30.08F
PROVINCETOWN   SUNNY     81  70  69 S14G26    30.05S
NANTUCKET      CLOUDY    71  67  87 S12       30.08F FOG
MARTHAS VNYRD  SUNNY     81  74  79 S14       30.06F
$$

MAZALL-072000-
CENTRAL AND WESTERN MASSACHUSETTS

CITY           SKY/WX    TMP DP  RH WIND       PRES   REMARKS
WORCESTER      CLOUDY    80  68  66 S20G28    30.03F
FITCHBURG      LGT RAIN  80  72  76 S9        30.00F
ORANGE         CLOUDY    77  72  84 S9        29.99F
SPRINGFIELD    PTSUNNY   81  74  78 S14       29.97F
WESTFIELD      PTSUNNY   82  72  71 S16       29.97F
NORTH ADAMS    PTSUNNY   77  72  84 VRB5      29.96F
PITTSFIELD     PTSUNNY   76  71  85 SE7       29.98F
$$

RIZALL-072000-
RHODE ISLAND

CITY           SKY/WX    TMP DP  RH WIND       PRES   REMARKS
PROVIDENCE     LGT RAIN  79  73  82 S14G24    30.04F
NEWPORT        PTSUNNY   78  74  87 S12G22    30.05F
BLOCK ISLAND   CLOUDY    77  72  83 S14G21    30.05F
SMITHFIELD     PTSUNNY   79  70  73 S9        30.04S
WESTERLY       CLOUDY    75  71  87 S14       30.04F
$$

CTZALL-072000-
CONNECTICUT

CITY           SKY/WX    TMP DP  RH WIND       PRES   REMARKS
BRADLEY INTL   PTSUNNY   81  74  79 S9        29.97F
HARTFORD       PTSUNNY   83  72  69 S13G22    29.97F
BRIDGEPORT     SUNNY     83  72  69 S10       29.98F
DANBURY        LGT RAIN  78  71  79 SW6       29.99F
GROTON         PTSUNNY   76  71  85 S14       30.02F
NEW HAVEN      MOSUNNY   80  73  79 SE17      30.00F
CHESTER        NOT AVBL
MERIDEN        PTSUNNY   83  72  69 S13G22    29.98F
WILLIMANTIC    PTSUNNY   81  71  71 S15G28    30.01F
OXFORD           N/A     81  72  74 S12G18    30.02F
$$

MEZ002-015-021-024-NHZ003-005-008-011-012-014-VTZ005-008-072000-
NORTHERN NEW ENGLAND

CITY           SKY/WX    TMP DP  RH WIND       PRES   REMARKS
PORTLAND ME    MOSUNNY   76  68  76 S10G18    30.01F
BANGOR ME      CLOUDY    76  65  68 S17       30.02F
CONCORD NH     CLOUDY    82  70  66 S6        29.98F
MANCHESTER NH  PTSUNNY   84  69  60 S15G25    29.96F
NASHUA NH      PTSUNNY   84  72  67 S7G15     29.98F
PORTSMOUTH NH  PTSUNNY   80  70  71 SE16      29.98F
JAFFREY NH     LGT RAIN  74  71  91 S6        30.02F FOG
KEENE NH       CLOUDY    77  70  78 SW6       29.98F
BURLINGTON VT  PTSUNNY   83  68  60 S17G26    29.87F
MT. WASHINGTON FOG       55  55 100 S28G39      N/A  VSB 0
$$

NYZ052-076-072000-
EASTERN NEW YORK

CITY           SKY/WX    TMP DP  RH WIND       PRES   REMARKS
ALBANY         LGT RAIN  77  72  84 SW9       29.94R
NEW YORK CITY  MOSUNNY   84  70  62 S16       29.96F
$$

ANZALL-072000-
MARINE OBSERVATIONS

STATION/POSITION TIME  TEMP    WIND        PRES    VSBY  WAVE
                       AIR SEA DIR/SP/G                  HT/PER
                 (UTC) (F)     (DEG/KT/KT) (MB)    (MI)  (FT/S)
BOSTON BUOY      1850   69 63  160/ 16/ 17 1016.2F         2/ 3
BUZZARDS BAY     1800          170/ 15/ 15 1018.7F
NANTUCKET SOUND  1850   72 70  200/ 12/ 14 1017.8F         1/ 3
MASS BAY-STELLWA 1804   69 65  160/ 14/ 16 1015.8F  1 7/8  3/ 3
ISLE OF SHOALS   1800   68     150/ 16/ 17 1016.0F
S OF BLOCK IS    1808      69                N/A           2/ 5
$$

......................KEY.........................
  SKY/WX - SKY CONDITION/PRESENT WEATHER
  TMP    - TEMPERATURE IN FAHRENHEIT
  DWPT   - DEWPOINT IN FAHRENHEIT
  RH     - RELATIVE HUMIDITY IN PERCENT
  WIND   - DIRECTION AND SPEED IN MPH
  PRES   - MEAN SEA LEVEL PRESSURE IN INCHES OF HG
  WCI    - WIND CHILL INDEX
  VSB    - VISIBILITY IN MILES
  HX     - HEAT INDEX
  TC     - TEMPERATURE IN CELSIUS
  VRB    - VARIABLE WIND DIRECTION
  N/A    - NOT AVAILABLE


USA.gov is the U.S. government's official web portal to all federal, state and local government web resources and services.